Location: Newark
(50.4348°N, 30.5552°E)
Time: 04:37:54
(UTC+00:00)

Altair - Pass Details

Date: 27 January 2020
Orbit: 1502 x 1682 km, 47.2° (Epoch: 18 February)

Event Time Altitude Azimuth Distance (km) Brightness Sun altitude
Rises 11:10:05 0° 284° (WNW) 4,938 10.2 19.8°
Reaches altitude 10° 11:13:21 10° 280° (W) 3,949 9.8 19.7°
Maximum altitude 11:23:06 55° 207° (SSW) 1,957 9.2 19.2°
Drops below altitude 10° 11:32:40 10° 134° (SE) 3,870 10.0 18.7°
Sets 11:35:49 0° 130° (SE) 4,833 10.4 18.5°
